TimeMDT,TemperatureF,Dew PointF,Humidity,Sea Level PressureIn,VisibilityMPH,Wind Direction,Wind SpeedMPH,Gust SpeedMPH,PrecipitationIn,Events,Conditions,WindDirDegrees,DateUTC
12:55 AM,30.0,19.0,64,30.24,10.0,SE,8.1,-,N/A,,Clear,140,2013-04-02 06:55:00
1:55 AM,26.1,18.0,71,30.22,10.0,East,4.6,-,N/A,,Clear,100,2013-04-02 07:55:00
2:55 AM,24.1,17.1,75,30.21,10.0,ENE,3.5,-,N/A,,Clear,60,2013-04-02 08:55:00
3:55 AM,21.0,16.0,81,30.20,10.0,NE,3.5,-,N/A,,Clear,50,2013-04-02 09:55:00
4:55 AM,19.9,15.1,81,30.20,10.0,Calm,Calm,-,N/A,,Clear,0,2013-04-02 10:55:00
5:55 AM,17.1,14.0,88,30.21,10.0,West,3.5,-,N/A,,Clear,280,2013-04-02 11:55:00
6:55 AM,16.0,12.9,88,30.23,10.0,West,3.5,-,N/A,,Clear,270,2013-04-02 12:55:00
7:55 AM,23.0,17.1,78,30.24,10.0,Calm,Calm,-,N/A,,Clear,0,2013-04-02 13:55:00
8:55 AM,32.0,21.9,66,30.24,10.0,Calm,Calm,-,N/A,,Clear,0,2013-04-02 14:55:00
9:55 AM,39.0,24.1,55,30.24,10.0,Calm,Calm,-,N/A,,Clear,0,2013-04-02 15:55:00
10:55 AM,45.0,24.1,44,30.23,10.0,ESE,8.1,-,N/A,,Clear,110,2013-04-02 16:55:00
11:55 AM,-9999,-9999,N/A,30.17,-9999.0,North,-9999.0,-,N/A,,Unknown,0,2013-04-02 17:55:00
12:55 PM,-9999,-9999,N/A,30.16,-9999.0,North,-9999.0,-,N/A,,Unknown,0,2013-04-02 18:55:00
1:55 PM,55.0,24.1,30,30.17,10.0,Variable,6.9,-,N/A,,Clear,0,2013-04-02 19:55:00
2:55 PM,55.0,21.9,28,30.17,10.0,Calm,Calm,-,N/A,,Clear,0,2013-04-02 20:55:00
3:55 PM,55.0,21.0,27,30.16,10.0,East,10.4,17.3,N/A,,Clear,100,2013-04-02 21:55:00
4:55 PM,55.0,21.0,27,30.15,10.0,East,8.1,17.3,N/A,,Clear,100,2013-04-02 22:55:00
5:55 PM,55.0,19.0,24,30.16,10.0,SE,8.1,-,N/A,,Clear,130,2013-04-02 23:55:00
6:55 PM,51.1,19.0,28,30.16,10.0,SE,6.9,-,N/A,,Clear,130,2013-04-03 00:55:00
7:55 PM,41.0,18.0,40,30.17,10.0,East,8.1,-,N/A,,Clear,100,2013-04-03 01:55:00
8:55 PM,37.9,19.0,47,30.18,10.0,East,8.1,-,N/A,,Clear,100,2013-04-03 02:55:00
9:55 PM,39.0,21.0,49,30.18,10.0,ESE,9.2,-,N/A,,Clear,110,2013-04-03 03:55:00
10:55 PM,37.0,21.9,54,30.17,10.0,East,10.4,-,N/A,,Clear,90,2013-04-03 04:55:00
11:55 PM,37.0,21.9,54,30.13,10.0,ESE,9.2,-,N/A,,Clear,110,2013-04-03 05:55:00